Вернуться в каталог

YAOGAN 16C

АктивенВоенныеLEO
NORAD 39013·PAYLOAD·🇨🇳 China

Запущен Nov 25, 2012 с Jiuquan Satellite Launch Center

Loading…

Ближайшие Пролёты (ближайшие 24 часа)

TLE

СвежийSource: Space-Track

Эпоха: Sep 14, 2026, 14:13 UTC

1 39013U 12066C   26257.59272193 -.00000302  00000-0 -19601-3 0  9998
2 39013  63.3526  58.5902 0442982  27.2077 335.1424 13.45512375678162

Отслеживайте YAOGAN 16C в реальном времени с AllMySat

Download on the App Store